Orbital Elements at Epoch 2459200.5 (2020-Dec-17.0) TDB
Reference: JPL 23 (heliocentric ecliptic J2000)
Element | Value | Uncertainty (1-sigma) | Units |
e | .2355947553796175 | 4.3767e-08 | |
a | 2.577962341079039 | 7.3596e-09 | au |
q | 1.970607933954657 | 1.099e-07 | au |
i | 2.983320794748515 | 4.4027e-06 | deg |
node | 230.9769879990145 | 7.8081e-05 | deg |
peri | 161.7617806382088 | 7.8638e-05 | deg |
M | 29.95141414199943 | 9.1975e-06 | deg |
tp | 2459074.715215037635 (2020-Aug-13.21521504) | 3.8513e-05 | TDB |
period | 1511.865929660866 4.14 | 6.4742e-06 1.773e-08 | d yr |
n | .2381163520767701 | 1.0197e-09 | deg/d |
Q | 3.185316748203421 | 9.0935e-09 | au |
|
| | Orbit Determination Parameters
Additional Information
|